Flag for Norway Weather past 2 weeks in Langevåg, Norway

Now
41 °F

Partly cloudy.


Feels Like: 34 °F
Forecast: 38 / 47 °F
Wind: 12 mph from Southwest

Location: Alesund / Vigra

Current Time: Apr 27, 2015 at 3:18:59 AM

Latest Report: Apr 26, 2015 at 11:50 PM


Visibility: N/A

Pressure: 29.53 "Hg

Humidity: 66%

Dew point: 30 °F

Location of LangevågLocation

Historic Weather in Langevåg — Graph

°F

Langevåg temperature yesterday

Maximum temperature yesterday: 45 °F (at 4:20 PM)
Minimum temperature yesterday: 36 °F (at 1:20 AM)
Average temperature yesterday: 40 °F

Past Weeks' High & Low Weather Summary

 TemperatureHumidityPressure
High52 °F (Apr 19, 2:20 PM)100% (Apr 18, 4:20 AM)30.51 "Hg (Apr 18, 4:20 AM)
Low30 °F (Apr 21, 5:50 AM)48% (Apr 14, 2:50 AM)29.15 "Hg (Apr 25, 7:50 PM)
Average41 °F79%29.91 "Hg
* Reported Apr 11 11:20 PM — Apr 26 11:50 PM, Langevåg, Weather by CustomWeather, © 2015

Note: Actual official high and low records may vary slightly from our data, if they occured in-between our weather recording intervals... More about our weather records

Advertising

Langevåg weather history for previous 24 hours

 ConditionsComfort  
Time TempWeatherWind HumidityBarometerVisibility
11:50 PM
Sun, Apr 26
41 °FPartly cloudy.12 mph66%29.53 "HgN/A
11:20 PM41 °FScattered showers. Partly cloudy.12 mph70%29.53 "HgN/A
10:50 PM37 °FScattered showers. Passing clouds.23 mph87%29.53 "HgN/A
10:20 PM41 °FScattered showers. Scattered clouds.14 mph70%29.50 "HgN/A
9:50 PM41 °FScattered showers. Scattered clouds.15 mph76%29.50 "HgN/A
9:20 PM39 °FSprinkles. Broken clouds.15 mph75%29.50 "HgN/A
8:50 PM41 °FScattered showers. Scattered clouds.14 mph76%29.50 "HgN/A
8:20 PM43 °FScattered showers. Scattered clouds.18 mph71%29.50 "HgN/A
7:50 PM41 °FScattered showers. Scattered clouds.21 mph76%29.47 "HgN/A
7:20 PM41 °FScattered showers. Broken clouds.17 mph76%29.47 "HgN/A
6:50 PM41 °FDrizzle. Broken clouds.31 mph76%29.47 "HgN/A
6:20 PM43 °FDrizzle. Broken clouds.25 mph71%29.47 "HgN/A
5:50 PM43 °FScattered showers. Broken clouds.24 mph66%29.45 "HgN/A
5:20 PM45 °FScattered showers. Broken clouds.29 mph66%29.45 "HgN/A
4:50 PM43 °FScattered showers. Broken clouds.26 mph66%29.45 "HgN/A
4:20 PM45 °FScattered showers. Broken clouds.24 mph61%29.42 "HgN/A
3:50 PM41 °FDrizzle. Broken clouds.28 mph76%29.45 "HgN/A
3:20 PM43 °FScattered showers. Broken clouds.13 mph71%29.42 "HgN/A
2:50 PM41 °FScattered showers. Broken clouds.16 mph81%29.42 "HgN/A
2:20 PM39 °FSprinkles. Broken clouds.28 mph87%29.42 "Hg5 mi
1:50 PM43 °FScattered showers. Broken clouds.17 mph71%29.39 "HgN/A
1:20 PM41 °FScattered showers. Broken clouds.17 mph81%29.39 "HgN/A
12:50 PM39 °FScattered showers. Scattered clouds.15 mph87%29.39 "HgN/A
12:20 PM41 °FBroken clouds.20 mph81%29.39 "HgN/A
11:50 AM41 °FScattered showers. Broken clouds.16 mph81%29.36 "HgN/A
11:20 AM37 °FDrizzle. Broken clouds.20 mph93%29.36 "HgN/A
10:50 AM37 °FLight rain. Broken clouds.13 mph93%29.36 "Hg5 mi
10:20 AM36 °FRain showers. Partly sunny.22 mph93%29.36 "Hg3 mi
9:50 AM37 °FRain showers. Broken clouds.25 mph87%29.36 "Hg4 mi
9:20 AM41 °FBroken clouds.17 mph76%29.33 "HgN/A
8:50 AM39 °FPartly sunny.16 mph81%29.33 "HgN/A
7:50 AM39 °FBroken clouds.18 mph87%29.33 "HgN/A
7:20 AM39 °FBroken clouds.15 mph81%29.30 "HgN/A
6:50 AM37 °FSprinkles. Broken clouds.22 mph87%29.30 "HgN/A
6:20 AM39 °FPassing clouds.15 mph81%29.30 "HgN/A
5:50 AM39 °FPassing clouds.20 mph81%29.30 "HgN/A
5:20 AM37 °FPassing clouds.21 mph87%29.27 "HgN/A
4:50 AM39 °FPassing clouds.22 mph81%29.27 "HgN/A
4:20 AM37 °FPartly cloudy.22 mph93%29.27 "HgN/A
3:50 AM37 °FPartly cloudy.20 mph93%29.27 "HgN/A
3:20 AM36 °FDrizzle. Low clouds.20 mph100%29.24 "HgN/A
Weather by CustomWeather, © 2015

See weather overviewHow to use our weather pages